Powrót do katalogu

COSMOS 1275 DEB

LostPO
NORAD 42132·DEBRIS·🇷🇺 Russia

Wystrzelony Jun 4, 1981 z Plesetsk Cosmodrome

Loading…

Następne Przeloty (najbliższe 24 godziny)

TLE

NieaktualneSource: Space-Track

Epoka: Mar 22, 2024, 17:54 UTC

1 42132U 81053QU  24082.74633424  .00002118  00000-0  23367-2 0  9993
2 42132  83.1473  92.1714 0139328 317.6894  41.3575 13.67478621 17488

Śledź COSMOS 1275 DEB w czasie rzeczywistym z AllMySat

Download on the App Store